Year,Month,Day,Hour,Minute,Value (Times are PST for temperature in C)
2009,07,23,00,00,16.80
2009,07,23,00,01,16.80
2009,07,23,00,02,16.90
2009,07,23,00,03,16.90
2009,07,23,00,04,16.90
2009,07,23,00,05,16.90
2009,07,23,00,06,16.80
2009,07,23,00,07,16.80
2009,07,23,00,08,16.80
2009,07,23,00,09,16.90
2009,07,23,00,10,16.90
2009,07,23,00,11,16.90
2009,07,23,00,12,16.90
2009,07,23,00,13,16.90
2009,07,23,00,14,16.90
2009,07,23,00,15,16.90
2009,07,23,00,16,16.90
2009,07,23,00,17,16.90
2009,07,23,00,18,16.90
2009,07,23,00,19,16.90
2009,07,23,00,20,16.80
2009,07,23,00,21,16.80
2009,07,23,00,22,16.80
2009,07,23,00,23,16.80
2009,07,23,00,24,16.80
2009,07,23,00,25,16.70
2009,07,23,00,26,16.70
2009,07,23,00,27,16.70
2009,07,23,00,28,16.70
2009,07,23,00,29,16.70
2009,07,23,00,30,16.70
2009,07,23,00,31,16.70
2009,07,23,00,32,16.70
2009,07,23,00,33,16.70
2009,07,23,00,34,16.70
2009,07,23,00,35,16.80
2009,07,23,00,36,16.80
2009,07,23,00,37,16.80
2009,07,23,00,38,16.80
2009,07,23,00,39,16.80
2009,07,23,00,40,16.90
2009,07,23,00,41,16.90
2009,07,23,00,42,16.90
2009,07,23,00,43,16.90
2009,07,23,00,44,16.90
2009,07,23,00,45,17.00
2009,07,23,00,46,17.00
2009,07,23,00,47,17.00
2009,07,23,00,48,17.10
2009,07,23,00,49,17.10
2009,07,23,00,50,17.10
2009,07,23,00,51,17.10
2009,07,23,00,52,17.10
2009,07,23,00,53,17.00
2009,07,23,00,54,17.00
2009,07,23,00,55,16.90
2009,07,23,00,56,16.90
2009,07,23,00,57,16.80
2009,07,23,00,58,16.80
2009,07,23,00,59,16.70
2009,07,23,01,00,16.70
2009,07,23,01,01,16.70
2009,07,23,01,02,16.70
2009,07,23,01,03,16.70
2009,07,23,01,04,16.70
2009,07,23,01,05,16.70
2009,07,23,01,06,16.70
2009,07,23,01,07,16.70
2009,07,23,01,08,16.80
2009,07,23,01,09,16.80
2009,07,23,01,10,16.80
2009,07,23,01,11,16.80
2009,07,23,01,12,16.80
2009,07,23,01,13,16.80
2009,07,23,01,14,16.70
2009,07,23,01,15,16.60
2009,07,23,01,16,16.50
2009,07,23,01,17,16.50
2009,07,23,01,18,16.40
2009,07,23,01,19,16.30
2009,07,23,01,20,16.30
2009,07,23,01,21,16.20
2009,07,23,01,22,16.20
2009,07,23,01,23,16.10
2009,07,23,01,24,16.10
2009,07,23,01,25,16.10
2009,07,23,01,26,16.00
2009,07,23,01,27,16.00
2009,07,23,01,28,16.00
2009,07,23,01,29,16.00
2009,07,23,01,30,16.00
2009,07,23,01,31,16.10
2009,07,23,01,32,16.10
2009,07,23,01,33,16.10
2009,07,23,01,34,16.10
2009,07,23,01,35,16.00
2009,07,23,01,36,16.00
2009,07,23,01,37,16.00
2009,07,23,01,38,15.90
2009,07,23,01,39,15.90
2009,07,23,01,40,15.80
2009,07,23,01,41,15.80
2009,07,23,01,42,15.80
2009,07,23,01,43,15.80
2009,07,23,01,44,15.80
2009,07,23,01,45,15.80
2009,07,23,01,46,15.80
2009,07,23,01,47,15.80
2009,07,23,01,48,15.80
2009,07,23,01,49,15.80
2009,07,23,01,50,15.80
2009,07,23,01,51,15.80
2009,07,23,01,52,15.80
2009,07,23,01,53,15.80
2009,07,23,01,54,15.80
2009,07,23,01,55,15.90
2009,07,23,01,56,15.90
2009,07,23,01,57,15.90
2009,07,23,01,58,15.90
2009,07,23,01,59,15.90
2009,07,23,02,00,16.00
2009,07,23,02,01,16.00
2009,07,23,02,02,16.10
2009,07,23,02,03,16.20
2009,07,23,02,04,16.20
2009,07,23,02,05,16.30
2009,07,23,02,06,16.30
2009,07,23,02,07,16.30
2009,07,23,02,08,16.40
2009,07,23,02,09,16.40
2009,07,23,02,10,16.40
2009,07,23,02,11,16.40
2009,07,23,02,12,16.50
2009,07,23,02,13,16.50
2009,07,23,02,14,16.50
2009,07,23,02,15,16.60
2009,07,23,02,16,16.60
2009,07,23,02,17,16.60
2009,07,23,02,18,16.60
2009,07,23,02,19,16.60
2009,07,23,02,20,16.60
2009,07,23,02,21,16.60
2009,07,23,02,22,16.60
2009,07,23,02,23,16.60
2009,07,23,02,24,16.60
2009,07,23,02,25,16.60
2009,07,23,02,26,16.60
2009,07,23,02,27,16.60
2009,07,23,02,28,16.50
2009,07,23,02,29,16.50
2009,07,23,02,30,16.40
2009,07,23,02,31,16.40
2009,07,23,02,32,16.30
2009,07,23,02,33,16.30
2009,07,23,02,34,16.20
2009,07,23,02,35,16.20
2009,07,23,02,36,16.10
2009,07,23,02,37,16.10
2009,07,23,02,38,16.10
2009,07,23,02,39,16.10
2009,07,23,02,40,16.10
2009,07,23,02,41,16.00
2009,07,23,02,42,16.00
2009,07,23,02,43,16.00
2009,07,23,02,44,16.00
2009,07,23,02,45,16.00
2009,07,23,02,46,16.00
2009,07,23,02,47,16.00
2009,07,23,02,48,16.00
2009,07,23,02,49,16.00
2009,07,23,02,50,16.00
2009,07,23,02,51,16.00
2009,07,23,02,52,15.90
2009,07,23,02,53,15.90
2009,07,23,02,54,15.90
2009,07,23,02,55,15.90
2009,07,23,02,56,15.90
2009,07,23,02,57,15.90
2009,07,23,02,58,15.90
2009,07,23,02,59,15.80
2009,07,23,03,00,15.80
2009,07,23,03,01,15.80
2009,07,23,03,02,15.80
2009,07,23,03,03,15.80
2009,07,23,03,04,15.80
2009,07,23,03,05,15.80
2009,07,23,03,06,15.80
2009,07,23,03,07,15.70
2009,07,23,03,08,15.70
2009,07,23,03,09,15.70
2009,07,23,03,10,15.80
2009,07,23,03,11,15.80
2009,07,23,03,12,15.80
2009,07,23,03,13,15.80
2009,07,23,03,14,15.80
2009,07,23,03,15,15.80
2009,07,23,03,16,15.80
2009,07,23,03,17,15.90
2009,07,23,03,18,15.90
2009,07,23,03,19,15.90
2009,07,23,03,20,15.90
2009,07,23,03,21,16.00
2009,07,23,03,22,16.00
2009,07,23,03,23,16.00
2009,07,23,03,24,16.00
2009,07,23,03,25,16.00
2009,07,23,03,26,16.00
2009,07,23,03,27,16.00
2009,07,23,03,28,16.00
2009,07,23,03,29,16.00
2009,07,23,03,30,16.00
2009,07,23,03,31,15.90
2009,07,23,03,32,15.90
2009,07,23,03,33,15.90
2009,07,23,03,34,15.90
2009,07,23,03,35,15.90
2009,07,23,03,36,15.90
2009,07,23,03,37,15.90
2009,07,23,03,38,15.90
2009,07,23,03,39,15.80
2009,07,23,03,40,15.80
2009,07,23,03,41,15.80
2009,07,23,03,42,15.80
2009,07,23,03,43,15.80
2009,07,23,03,44,15.80
2009,07,23,03,45,15.80
2009,07,23,03,46,15.80
2009,07,23,03,47,15.80
2009,07,23,03,48,15.80
2009,07,23,03,49,15.80
2009,07,23,03,50,15.80
2009,07,23,03,51,15.80
2009,07,23,03,52,15.80
2009,07,23,03,53,15.80
2009,07,23,03,54,15.80
2009,07,23,03,55,15.80
2009,07,23,03,56,15.80
2009,07,23,03,57,15.80
2009,07,23,03,58,15.80
2009,07,23,03,59,15.70
2009,07,23,04,00,15.70
2009,07,23,04,01,15.70
2009,07,23,04,02,15.70
2009,07,23,04,03,15.70
2009,07,23,04,04,15.70
2009,07,23,04,05,15.60
2009,07,23,04,06,15.60
2009,07,23,04,07,15.60
2009,07,23,04,08,15.60
2009,07,23,04,09,15.60
2009,07,23,04,10,15.50
2009,07,23,04,11,15.50
2009,07,23,04,12,15.50
2009,07,23,04,13,15.40
2009,07,23,04,14,15.40
2009,07,23,04,15,15.40
2009,07,23,04,16,15.40
2009,07,23,04,17,15.40
2009,07,23,04,18,15.40
2009,07,23,04,19,15.30
2009,07,23,04,20,15.30
2009,07,23,04,21,15.30
2009,07,23,04,22,15.30
2009,07,23,04,23,15.30
2009,07,23,04,24,15.40
2009,07,23,04,25,15.40
2009,07,23,04,26,15.40
2009,07,23,04,27,15.40
2009,07,23,04,28,15.40
2009,07,23,04,29,15.30
2009,07,23,04,30,15.30
2009,07,23,04,31,15.30
2009,07,23,04,32,15.30
2009,07,23,04,33,15.30
2009,07,23,04,34,15.30
2009,07,23,04,35,15.30
2009,07,23,04,36,15.30
2009,07,23,04,37,15.30
2009,07,23,04,38,15.30
2009,07,23,04,39,15.30
2009,07,23,04,40,15.30
2009,07,23,04,41,15.30
2009,07,23,04,42,15.30
2009,07,23,04,43,15.30
2009,07,23,04,44,15.20
2009,07,23,04,45,15.20
2009,07,23,04,46,15.20
2009,07,23,04,47,15.20
2009,07,23,04,48,15.20
2009,07,23,04,49,15.20
2009,07,23,04,50,15.20
2009,07,23,04,51,15.20
2009,07,23,04,52,15.20
2009,07,23,04,53,15.20
2009,07,23,04,54,15.10
2009,07,23,04,55,15.10
2009,07,23,04,56,15.00
2009,07,23,04,57,15.00
2009,07,23,04,58,15.00
2009,07,23,04,59,15.00
2009,07,23,05,00,15.00
2009,07,23,05,01,15.00
2009,07,23,05,02,15.00
2009,07,23,05,03,15.00
2009,07,23,05,04,15.00
2009,07,23,05,05,15.00
2009,07,23,05,06,14.90
2009,07,23,05,07,14.90
2009,07,23,05,08,14.90
2009,07,23,05,09,14.90
2009,07,23,05,10,14.80
2009,07,23,05,11,14.80
2009,07,23,05,12,14.80
2009,07,23,05,13,14.80
2009,07,23,05,14,14.80
2009,07,23,05,15,14.80
2009,07,23,05,16,14.70
2009,07,23,05,17,14.70
2009,07,23,05,18,14.70
2009,07,23,05,19,14.70
2009,07,23,05,20,14.70
2009,07,23,05,21,14.70
2009,07,23,05,22,14.70
2009,07,23,05,23,14.70
2009,07,23,05,24,14.70
2009,07,23,05,25,14.70
2009,07,23,05,26,14.70
2009,07,23,05,27,14.70
2009,07,23,05,28,14.70
2009,07,23,05,29,14.60
2009,07,23,05,30,14.60
2009,07,23,05,31,14.60
2009,07,23,05,32,14.60
2009,07,23,05,33,14.60
2009,07,23,05,34,14.60
2009,07,23,05,35,14.60
2009,07,23,05,36,14.60
2009,07,23,05,37,14.60
2009,07,23,05,38,14.60
2009,07,23,05,39,14.60
2009,07,23,05,40,14.70
2009,07,23,05,41,14.70
2009,07,23,05,42,14.70
2009,07,23,05,43,14.70
2009,07,23,05,44,14.70
2009,07,23,05,45,14.80
2009,07,23,05,46,14.80
2009,07,23,05,47,14.80
2009,07,23,05,48,14.80
2009,07,23,05,49,14.80
2009,07,23,05,50,14.80
2009,07,23,05,51,14.80
2009,07,23,05,52,14.80
2009,07,23,05,53,14.80
2009,07,23,05,54,14.80
2009,07,23,05,55,14.80
2009,07,23,05,56,14.70
2009,07,23,05,57,14.70
2009,07,23,05,58,14.70
2009,07,23,05,59,14.70
2009,07,23,06,00,14.70
2009,07,23,06,01,14.70
2009,07,23,06,02,14.70
2009,07,23,06,03,14.70
2009,07,23,06,04,14.70
2009,07,23,06,05,14.70
2009,07,23,06,06,14.70
2009,07,23,06,07,14.70
2009,07,23,06,08,14.70
2009,07,23,06,09,14.70
2009,07,23,06,10,14.70
2009,07,23,06,11,14.70
2009,07,23,06,12,14.70
2009,07,23,06,13,14.70
2009,07,23,06,14,14.70
2009,07,23,06,15,14.70
2009,07,23,06,16,14.70
2009,07,23,06,17,14.70
2009,07,23,06,18,14.70
2009,07,23,06,19,14.70
2009,07,23,06,20,14.70
2009,07,23,06,21,14.80
2009,07,23,06,22,14.80
2009,07,23,06,23,14.80
2009,07,23,06,24,14.80
2009,07,23,06,25,14.80
2009,07,23,06,26,14.80
2009,07,23,06,27,14.80
2009,07,23,06,28,14.80
2009,07,23,06,29,14.80
2009,07,23,06,30,14.80
2009,07,23,06,31,14.90
2009,07,23,06,32,14.90
2009,07,23,06,33,14.90
2009,07,23,06,34,14.90
2009,07,23,06,35,14.90
2009,07,23,06,36,14.90
2009,07,23,06,37,14.90
2009,07,23,06,38,14.90
2009,07,23,06,39,15.00
2009,07,23,06,40,15.00
2009,07,23,06,41,15.00
2009,07,23,06,42,15.00
2009,07,23,06,43,15.00
2009,07,23,06,44,15.00
2009,07,23,06,45,15.10
2009,07,23,06,46,15.10
2009,07,23,06,47,15.20
2009,07,23,06,48,15.20
2009,07,23,06,49,15.20
2009,07,23,06,50,15.20
2009,07,23,06,51,15.30
2009,07,23,06,52,15.30
2009,07,23,06,53,15.30
2009,07,23,06,54,15.40
2009,07,23,06,55,15.40
2009,07,23,06,56,15.40
2009,07,23,06,57,15.40
2009,07,23,06,58,15.40
2009,07,23,06,59,15.40
2009,07,23,07,00,15.50
2009,07,23,07,01,15.60
2009,07,23,07,02,15.60
2009,07,23,07,03,15.70
2009,07,23,07,04,15.70
2009,07,23,07,05,15.80
2009,07,23,07,06,15.80
2009,07,23,07,07,15.80
2009,07,23,07,08,15.90
2009,07,23,07,09,15.90
2009,07,23,07,10,15.90
2009,07,23,07,11,15.90
2009,07,23,07,12,15.90
2009,07,23,07,13,15.90
2009,07,23,07,14,16.00
2009,07,23,07,15,16.00
2009,07,23,07,16,16.00
2009,07,23,07,17,16.00
2009,07,23,07,18,16.00
2009,07,23,07,19,16.10
2009,07,23,07,20,16.10
2009,07,23,07,21,16.20
2009,07,23,07,22,16.20
2009,07,23,07,23,16.20
2009,07,23,07,24,16.20
2009,07,23,07,25,16.30
2009,07,23,07,26,16.30
2009,07,23,07,27,16.20
2009,07,23,07,28,16.20
2009,07,23,07,29,16.20
2009,07,23,07,30,16.20
2009,07,23,07,31,16.20
2009,07,23,07,32,16.10
2009,07,23,07,33,16.10
2009,07,23,07,34,16.10
2009,07,23,07,35,16.10
2009,07,23,07,36,16.10
2009,07,23,07,37,16.10
2009,07,23,07,38,16.10
2009,07,23,07,39,16.10
2009,07,23,07,40,16.10
2009,07,23,07,41,16.10
2009,07,23,07,42,16.10
2009,07,23,07,43,16.10
2009,07,23,07,44,16.20
2009,07,23,07,45,16.20
2009,07,23,07,46,16.20
2009,07,23,07,47,16.30
2009,07,23,07,48,16.30
2009,07,23,07,49,16.30
2009,07,23,07,50,16.30
2009,07,23,07,51,16.30
2009,07,23,07,52,16.40
2009,07,23,07,53,16.40
2009,07,23,07,54,16.40
2009,07,23,07,55,16.40
2009,07,23,07,56,16.50
2009,07,23,07,57,16.50
2009,07,23,07,58,16.50
2009,07,23,07,59,16.50
2009,07,23,08,00,16.50
2009,07,23,08,01,16.50
2009,07,23,08,02,16.50
2009,07,23,08,03,16.60
2009,07,23,08,04,16.60
2009,07,23,08,05,16.70
2009,07,23,08,06,16.80
2009,07,23,08,07,16.80
2009,07,23,08,08,16.90
2009,07,23,08,09,16.90
2009,07,23,08,10,17.00
2009,07,23,08,11,17.00
2009,07,23,08,12,17.10
2009,07,23,08,13,17.10
2009,07,23,08,14,17.20
2009,07,23,08,15,17.20
2009,07,23,08,16,17.30
2009,07,23,08,17,17.30
2009,07,23,08,18,17.30
2009,07,23,08,19,17.40
2009,07,23,08,20,17.50
2009,07,23,08,21,17.50
2009,07,23,08,22,17.60
2009,07,23,08,23,17.60
2009,07,23,08,24,17.70
2009,07,23,08,25,17.80
2009,07,23,08,26,17.80
2009,07,23,08,27,17.80
2009,07,23,08,28,17.80
2009,07,23,08,29,17.80
2009,07,23,08,30,17.90
2009,07,23,08,31,17.90
2009,07,23,08,32,18.00
2009,07,23,08,33,18.00
2009,07,23,08,34,18.00
2009,07,23,08,35,18.10
2009,07,23,08,36,18.10
2009,07,23,08,37,18.10
2009,07,23,08,38,18.20
2009,07,23,08,39,18.20
2009,07,23,08,40,18.20
2009,07,23,08,41,18.20
2009,07,23,08,42,18.30
2009,07,23,08,43,18.30
2009,07,23,08,44,18.40
2009,07,23,08,45,18.40
2009,07,23,08,46,18.40
2009,07,23,08,47,18.40
2009,07,23,08,48,18.50
2009,07,23,08,49,18.60
2009,07,23,08,50,18.70
2009,07,23,08,51,18.90
2009,07,23,08,52,18.90
2009,07,23,08,53,19.00
2009,07,23,08,54,19.00
2009,07,23,08,55,19.10
2009,07,23,08,56,19.10
2009,07,23,08,57,19.20
2009,07,23,08,58,19.30
2009,07,23,08,59,19.20
2009,07,23,09,00,19.20
2009,07,23,09,01,19.10
2009,07,23,09,02,19.10
2009,07,23,09,03,19.00
2009,07,23,09,04,19.00
2009,07,23,09,05,19.00
2009,07,23,09,06,19.10
2009,07,23,09,07,19.10
2009,07,23,09,08,19.20
2009,07,23,09,09,19.20
2009,07,23,09,10,19.30
2009,07,23,09,11,19.30
2009,07,23,09,12,19.30
2009,07,23,09,13,19.30
2009,07,23,09,14,19.30
2009,07,23,09,15,19.30
2009,07,23,09,16,19.40
2009,07,23,09,17,19.40
2009,07,23,09,18,19.40
2009,07,23,09,19,19.40
2009,07,23,09,20,19.30
2009,07,23,09,21,19.20
2009,07,23,09,22,19.20
2009,07,23,09,23,19.20
2009,07,23,09,24,19.20
2009,07,23,09,25,19.30
2009,07,23,09,26,19.30
2009,07,23,09,27,19.40
2009,07,23,09,28,19.50
2009,07,23,09,29,19.40
2009,07,23,09,30,19.40
2009,07,23,09,31,19.40
2009,07,23,09,32,19.40
2009,07,23,09,33,19.40
2009,07,23,09,34,19.40
2009,07,23,09,35,19.30
2009,07,23,09,36,19.30
2009,07,23,09,37,19.30
2009,07,23,09,38,19.30
2009,07,23,09,39,19.30
2009,07,23,09,40,19.40
2009,07,23,09,41,19.40
2009,07,23,09,42,19.30
2009,07,23,09,43,19.30
2009,07,23,09,44,19.30
2009,07,23,09,45,19.30
2009,07,23,09,46,19.40
2009,07,23,09,47,19.50
2009,07,23,09,48,19.60
2009,07,23,09,49,19.60
2009,07,23,09,50,19.60
2009,07,23,09,51,19.70
2009,07,23,09,52,19.70
2009,07,23,09,53,19.70
2009,07,23,09,54,19.80
2009,07,23,09,55,19.90
2009,07,23,09,56,20.00
2009,07,23,09,57,20.10
2009,07,23,09,58,20.10
2009,07,23,09,59,20.10
2009,07,23,10,00,20.20
2009,07,23,10,01,20.10
2009,07,23,10,02,19.90
2009,07,23,10,03,19.90
2009,07,23,10,04,19.80
2009,07,23,10,05,19.70
2009,07,23,10,06,19.70
2009,07,23,10,07,19.70
2009,07,23,10,08,19.60
2009,07,23,10,09,19.50
2009,07,23,10,10,19.40
2009,07,23,10,11,19.40
2009,07,23,10,12,19.30
2009,07,23,10,13,19.30
2009,07,23,10,14,19.20
2009,07,23,10,15,19.10
2009,07,23,10,16,19.00
2009,07,23,10,17,18.80
2009,07,23,10,18,18.80
2009,07,23,10,19,18.80
2009,07,23,10,20,18.70
2009,07,23,10,21,18.70
2009,07,23,10,22,18.70
2009,07,23,10,23,18.70
2009,07,23,10,24,18.70
2009,07,23,10,25,18.70
2009,07,23,10,26,18.70
2009,07,23,10,27,18.80
2009,07,23,10,28,18.80
2009,07,23,10,29,18.80
2009,07,23,10,30,18.80
2009,07,23,10,31,18.80
2009,07,23,10,32,18.80
2009,07,23,10,33,18.70
2009,07,23,10,34,18.70
2009,07,23,10,35,18.70
2009,07,23,10,36,18.80
2009,07,23,10,37,18.80
2009,07,23,10,38,18.80
2009,07,23,10,39,18.70
2009,07,23,10,40,18.70
2009,07,23,10,41,18.80
2009,07,23,10,42,18.90
2009,07,23,10,43,18.90
2009,07,23,10,44,18.80
2009,07,23,10,45,18.80
2009,07,23,10,46,18.80
2009,07,23,10,47,18.80
2009,07,23,10,48,18.80
2009,07,23,10,49,18.70
2009,07,23,10,50,18.70
2009,07,23,10,51,18.70
2009,07,23,10,52,18.80
2009,07,23,10,53,18.90
2009,07,23,10,54,19.10
2009,07,23,10,55,19.20
2009,07,23,10,56,19.40
2009,07,23,10,57,19.50
2009,07,23,10,58,19.50
2009,07,23,10,59,19.50
2009,07,23,11,00,19.50
2009,07,23,11,01,19.60
2009,07,23,11,02,19.70
2009,07,23,11,03,19.70
2009,07,23,11,04,19.70
2009,07,23,11,05,19.70
2009,07,23,11,06,19.70
2009,07,23,11,07,19.70
2009,07,23,11,08,19.80
2009,07,23,11,09,19.80
2009,07,23,11,10,19.70
2009,07,23,11,11,19.70
2009,07,23,11,12,19.80
2009,07,23,11,13,19.80
2009,07,23,11,14,19.70
2009,07,23,11,15,19.80
2009,07,23,11,16,19.80
2009,07,23,11,17,19.90
2009,07,23,11,18,19.90
2009,07,23,11,19,19.90
2009,07,23,11,20,19.90
2009,07,23,11,21,19.90
2009,07,23,11,22,19.90
2009,07,23,11,23,19.80
2009,07,23,11,24,19.80
2009,07,23,11,25,19.80
2009,07,23,11,26,19.90
2009,07,23,11,27,19.90
2009,07,23,11,28,20.00
2009,07,23,11,29,20.10
2009,07,23,11,30,20.10
2009,07,23,11,31,20.10
2009,07,23,11,32,20.10
2009,07,23,11,33,20.20
2009,07,23,11,34,20.10
2009,07,23,11,35,20.00
2009,07,23,11,36,19.90
2009,07,23,11,37,19.80
2009,07,23,11,38,19.80
2009,07,23,11,39,19.70
2009,07,23,11,40,19.60
2009,07,23,11,41,19.40
2009,07,23,11,42,19.40
2009,07,23,11,43,19.30
2009,07,23,11,44,19.20
2009,07,23,11,45,19.00
2009,07,23,11,46,18.90
2009,07,23,11,47,18.90
2009,07,23,11,48,18.90
2009,07,23,11,49,18.90
2009,07,23,11,50,19.00
2009,07,23,11,51,19.10
2009,07,23,11,52,19.30
2009,07,23,11,53,19.50
2009,07,23,11,54,19.60
2009,07,23,11,55,19.80
2009,07,23,11,56,19.90
2009,07,23,11,57,20.10
2009,07,23,11,58,20.20
2009,07,23,11,59,20.20
2009,07,23,12,00,20.20
2009,07,23,12,01,20.30
2009,07,23,12,02,20.30
2009,07,23,12,03,20.30
2009,07,23,12,04,20.40
2009,07,23,12,05,20.50
2009,07,23,12,06,20.50
2009,07,23,12,07,20.40
2009,07,23,12,08,20.30
2009,07,23,12,09,20.20
2009,07,23,12,10,20.20
2009,07,23,12,11,20.30
2009,07,23,12,12,20.40
2009,07,23,12,13,20.60
2009,07,23,12,14,20.70
2009,07,23,12,15,20.60
2009,07,23,12,16,20.50
2009,07,23,12,17,20.30
2009,07,23,12,18,20.20
2009,07,23,12,19,20.30
2009,07,23,12,20,20.30
2009,07,23,12,21,20.30
2009,07,23,12,22,20.40
2009,07,23,12,23,20.60
2009,07,23,12,24,20.60
2009,07,23,12,25,20.50
2009,07,23,12,26,20.40
2009,07,23,12,27,20.30
2009,07,23,12,28,20.30
2009,07,23,12,29,20.30
2009,07,23,12,30,20.20
2009,07,23,12,31,20.10
2009,07,23,12,32,20.00
2009,07,23,12,33,20.00
2009,07,23,12,34,20.10
2009,07,23,12,35,20.20
2009,07,23,12,36,20.10
2009,07,23,12,37,20.20
2009,07,23,12,38,20.20
2009,07,23,12,39,20.20
2009,07,23,12,40,20.30
2009,07,23,12,41,20.40
2009,07,23,12,42,20.50
2009,07,23,12,43,20.50
2009,07,23,12,44,20.40
2009,07,23,12,45,20.40
2009,07,23,12,46,20.50
2009,07,23,12,47,20.60
2009,07,23,12,48,20.70
2009,07,23,12,49,20.50
2009,07,23,12,50,20.30
2009,07,23,12,51,20.20
2009,07,23,12,52,20.10
2009,07,23,12,53,19.90
2009,07,23,12,54,19.80
2009,07,23,12,55,19.80
2009,07,23,12,56,19.80
2009,07,23,12,57,19.70
2009,07,23,12,58,19.70
2009,07,23,12,59,19.90
2009,07,23,13,00,20.00
2009,07,23,13,01,20.00
2009,07,23,13,02,20.00
2009,07,23,13,03,20.00
2009,07,23,13,04,20.10
2009,07,23,13,05,20.10
2009,07,23,13,06,20.10
2009,07,23,13,07,20.00
2009,07,23,13,08,19.90
2009,07,23,13,09,19.90
2009,07,23,13,10,20.00
2009,07,23,13,11,20.10
2009,07,23,13,12,20.10
2009,07,23,13,13,20.10
2009,07,23,13,14,20.10
2009,07,23,13,15,20.20
2009,07,23,13,16,20.40
2009,07,23,13,17,20.50
2009,07,23,13,18,20.50
2009,07,23,13,19,20.40
2009,07,23,13,20,20.30
2009,07,23,13,21,20.10
2009,07,23,13,22,19.80
2009,07,23,13,23,19.60
2009,07,23,13,24,19.40
2009,07,23,13,25,19.30
2009,07,23,13,26,19.20
2009,07,23,13,27,19.20
2009,07,23,13,28,19.30
2009,07,23,13,29,19.40
2009,07,23,13,30,19.60
2009,07,23,13,31,19.60
2009,07,23,13,32,19.70
2009,07,23,13,33,19.70
2009,07,23,13,34,19.70
2009,07,23,13,35,19.70
2009,07,23,13,36,19.70
2009,07,23,13,37,19.70
2009,07,23,13,38,19.70
2009,07,23,13,39,19.70
2009,07,23,13,40,19.70
2009,07,23,13,41,19.80
2009,07,23,13,42,19.90
2009,07,23,13,43,20.10
2009,07,23,13,44,20.10
2009,07,23,13,45,20.10
2009,07,23,13,46,20.10
2009,07,23,13,47,20.10
2009,07,23,13,48,20.20
2009,07,23,13,49,20.20
2009,07,23,13,50,20.30
2009,07,23,13,51,20.30
2009,07,23,13,52,20.40
2009,07,23,13,53,20.40
2009,07,23,13,54,20.50
2009,07,23,13,55,20.60
2009,07,23,13,56,20.70
2009,07,23,13,57,20.70
2009,07,23,13,58,20.80
2009,07,23,13,59,20.80
2009,07,23,14,00,20.80
2009,07,23,14,01,20.80
2009,07,23,14,02,20.90
2009,07,23,14,03,20.80
2009,07,23,14,04,20.80
2009,07,23,14,05,20.90
2009,07,23,14,06,20.90
2009,07,23,14,07,20.80
2009,07,23,14,08,20.70
2009,07,23,14,09,20.60
2009,07,23,14,10,20.50
2009,07,23,14,11,20.30
2009,07,23,14,12,20.20
2009,07,23,14,13,20.20
2009,07,23,14,14,20.30
2009,07,23,14,15,20.30
2009,07,23,14,16,20.30
2009,07,23,14,17,20.30
2009,07,23,14,18,20.30
2009,07,23,14,19,20.30
2009,07,23,14,20,20.20
2009,07,23,14,21,20.10
2009,07,23,14,22,20.10
2009,07,23,14,23,20.00
2009,07,23,14,24,19.90
2009,07,23,14,25,19.90
2009,07,23,14,26,20.00
2009,07,23,14,27,19.90
2009,07,23,14,28,19.90
2009,07,23,14,29,19.90
2009,07,23,14,30,20.00
2009,07,23,14,31,20.00
2009,07,23,14,32,20.10
2009,07,23,14,33,20.10
2009,07,23,14,34,20.10
2009,07,23,14,35,20.00
2009,07,23,14,36,20.00
2009,07,23,14,37,20.00
2009,07,23,14,38,20.00
2009,07,23,14,39,20.10
2009,07,23,14,40,20.20
2009,07,23,14,41,20.30
2009,07,23,14,42,20.40
2009,07,23,14,43,20.50
2009,07,23,14,44,20.40
2009,07,23,14,45,20.30
2009,07,23,14,46,20.20
2009,07,23,14,47,20.20
2009,07,23,14,48,20.30
2009,07,23,14,49,20.40
2009,07,23,14,50,20.40
2009,07,23,14,51,20.50
2009,07,23,14,52,20.60
2009,07,23,14,53,20.60
2009,07,23,14,54,20.60
2009,07,23,14,55,20.50
2009,07,23,14,56,20.40
2009,07,23,14,57,20.40
2009,07,23,14,58,20.20
2009,07,23,14,59,20.20
2009,07,23,15,00,20.30
2009,07,23,15,01,20.30
2009,07,23,15,02,20.20
2009,07,23,15,03,20.20
2009,07,23,15,04,20.20
2009,07,23,15,05,20.20
2009,07,23,15,06,20.20
2009,07,23,15,07,20.20
2009,07,23,15,08,20.30
2009,07,23,15,09,20.30
2009,07,23,15,10,20.30
2009,07,23,15,11,20.40
2009,07,23,15,12,20.40
2009,07,23,15,13,20.40
2009,07,23,15,14,20.40
2009,07,23,15,15,20.30
2009,07,23,15,16,20.30
2009,07,23,15,17,20.20
2009,07,23,15,18,20.30
2009,07,23,15,19,20.40
2009,07,23,15,20,20.40
2009,07,23,15,21,20.40
2009,07,23,15,22,20.40
2009,07,23,15,23,20.40
2009,07,23,15,24,20.40
2009,07,23,15,25,20.60
2009,07,23,15,26,20.50
2009,07,23,15,27,20.40
2009,07,23,15,28,20.40
2009,07,23,15,29,20.30
2009,07,23,15,30,20.30
2009,07,23,15,31,20.20
2009,07,23,15,32,20.20
2009,07,23,15,33,20.20
2009,07,23,15,34,20.20
2009,07,23,15,35,20.10
2009,07,23,15,36,20.10
2009,07,23,15,37,20.10
2009,07,23,15,38,20.20
2009,07,23,15,39,20.10
2009,07,23,15,40,20.10
2009,07,23,15,41,20.10
2009,07,23,15,42,20.10
2009,07,23,15,43,20.10
2009,07,23,15,44,20.10
2009,07,23,15,45,20.10
2009,07,23,15,46,20.10
2009,07,23,15,47,20.20
2009,07,23,15,48,20.20
2009,07,23,15,49,20.30
2009,07,23,15,50,20.30
2009,07,23,15,51,20.40
2009,07,23,15,52,20.40
2009,07,23,15,53,20.50
2009,07,23,15,54,20.40
2009,07,23,15,55,20.40
2009,07,23,15,56,20.30
2009,07,23,15,57,20.20
2009,07,23,15,58,20.20
2009,07,23,15,59,20.10
2009,07,23,16,00,20.00
2009,07,23,16,01,20.00
2009,07,23,16,02,20.00
2009,07,23,16,03,20.00
2009,07,23,16,04,20.00
2009,07,23,16,05,20.00
2009,07,23,16,06,20.00
2009,07,23,16,07,20.10
2009,07,23,16,08,20.20
2009,07,23,16,09,20.20
2009,07,23,16,10,20.30
2009,07,23,16,11,20.30
2009,07,23,16,12,20.40
2009,07,23,16,13,20.50
2009,07,23,16,14,20.60
2009,07,23,16,15,20.60
2009,07,23,16,16,20.60
2009,07,23,16,17,20.60
2009,07,23,16,18,20.70
2009,07,23,16,19,20.80
2009,07,23,16,20,20.70
2009,07,23,16,21,20.70
2009,07,23,16,22,20.60
2009,07,23,16,23,20.60
2009,07,23,16,24,20.60
2009,07,23,16,25,20.50
2009,07,23,16,26,20.40
2009,07,23,16,27,20.50
2009,07,23,16,28,20.50
2009,07,23,16,29,20.50
2009,07,23,16,30,20.70
2009,07,23,16,31,20.70
2009,07,23,16,32,20.90
2009,07,23,16,33,20.90
2009,07,23,16,34,20.90
2009,07,23,16,35,20.90
2009,07,23,16,36,20.90
2009,07,23,16,37,20.90
2009,07,23,16,38,20.90
2009,07,23,16,39,20.90
2009,07,23,16,40,21.00
2009,07,23,16,41,21.00
2009,07,23,16,42,20.90
2009,07,23,16,43,20.80
2009,07,23,16,44,20.80
2009,07,23,16,45,20.80
2009,07,23,16,46,20.80
2009,07,23,16,47,20.80
2009,07,23,16,48,20.80
2009,07,23,16,49,20.70
2009,07,23,16,50,20.70
2009,07,23,16,51,20.60
2009,07,23,16,52,20.50
2009,07,23,16,53,20.50
2009,07,23,16,54,20.60
2009,07,23,16,55,20.60
2009,07,23,16,56,20.60
2009,07,23,16,57,20.60
2009,07,23,16,58,20.60
2009,07,23,16,59,20.70
2009,07,23,17,00,20.80
2009,07,23,17,01,20.90
2009,07,23,17,02,20.90
2009,07,23,17,03,20.90
2009,07,23,17,04,20.80
2009,07,23,17,05,20.80
2009,07,23,17,06,20.80
2009,07,23,17,07,20.90
2009,07,23,17,08,21.00
2009,07,23,17,09,21.10
2009,07,23,17,10,21.10
2009,07,23,17,11,21.10
2009,07,23,17,12,21.30
2009,07,23,17,13,21.30
2009,07,23,17,14,21.30
2009,07,23,17,15,21.30
2009,07,23,17,16,21.30
2009,07,23,17,17,21.30
2009,07,23,17,18,21.30
2009,07,23,17,19,21.40